Retour au catalogue

TJS-6

ActifCommunicationsGEO
NORAD 47613·PAYLOAD·🇨🇳 China

Lancé Feb 4, 2021 depuis Xichang Satellite Launch Center

Loading…

TLE

FraisSource: Space-Track

Époque: Sep 14, 2026, 15:37 UTC

1 47613U 21010A   26257.65121382  .00000035  00000-0  00000-0 0  9993
2 47613   0.0315 231.6165 0003522 311.9291 223.0109  1.00270587 20700

Suivez TJS-6 en temps réel avec AllMySat

Download on the App Store